CZ-6A DEB, 54938

Orbit data source: Space-Track

CZ-6A DEB, 54938 is space debris in SSO originally from a launch on Fri, 11 Nov 2022 UTC launched from the Taiyaun Space Center, China (TSC). Debris objects in space refer to the collection of defunct objects orbiting the Earth. Examples of debris include non-operational satellites, rocket bodies, and fragments generated from explosions, collisions, or faulty payload assembly.

Loading next visibility...
Identifier
54938, 2022-151SB
Orbit
SSO
Country
Flag of CNCN / PRC
Related business
Manufacturer
SAST
Mission
Spacecraft
Bus & Motor
Unknown
Mass
Unknown
Launch date (UTC)
2022-11-11 (4 years ago)
Launch vehicle
Unknown
Launch site
Taiyaun Space Center, China (TSC)
Object type
Payload
Rocket body
Debris
Shape & HBR
Unknown shape, 0.1 m
Radar Cross Section
Medium (>0.1 m² and <1 m²)

Expand to show TLE details & history
Last TLE update: 3 days ago

TLE from 3 days ago
0 CZ-6A DEB
1 54938U 22151SB  26170.37292455  .00017279  00000-0  17058-2 0  9992
2 54938  99.1460 332.5231 0063634 272.9869  86.4064 14.90527425191316
Epoch: 2026-06-19T08:57Z
TLE epoch observation values (Epoch: 2026-06-19T08:57:00.681Z)
Latitude
-0°
Longitude
-69.33257°
Altitude
596.785 km
Speed
7.563 km/s
True Right ascension
22h 10m 05s
True Declination
0° 00' 00"
Sunlit
Object was in daylight at epoch
Visualization orbit readout
Latitude
Unknown
Longitude
Unknown
Altitude
Unknown
Speed
Unknown
Apparent Right ascension
Unknown
Apparent Declination
Unknown
Sunlit
N/A
Visualization observer readout
Local Sidereal Time
21:27:48
Azimuth
Unknown
Elevation
Unknown
Doppler factor
Unknown
Orbital elements
Apogee altitude
637.739 km
Perigee altitude
549.014 km
Semi-major axis
6,971.514 km
Eccentricity
0.00636
Inclination
99.146°
RAAN
332.5231°
Arg. of periapsis
272.9869°
True anomaly
87.1345°
Mean anomaly
86.4064°
Eccentric anomaly
86.77042°
Mean motion
3.72866 °/min
Orbital period
96.55 mins
BSTAR
0.0017058
Loading maneuver chart data...
Computing Atmospheric mass density...
Loading historical data...
Loading historical data...
Loading historical data...
Loading historical data...
Loading historical data...
Loading historical data...
Loading historical data...

Documentation

Showing up to 5 results
|